CZ-6A DEB, 54330

Orbit data source: Space-Track

CZ-6A DEB, 54330 is space debris in SSO originally from a launch on Fri, 11 Nov 2022 UTC launched from the Taiyaun Space Center, China (TSC). Debris objects in space refer to the collection of defunct objects orbiting the Earth. Examples of debris include non-operational satellites, rocket bodies, and fragments generated from explosions, collisions, or faulty payload assembly.

Loading next visibility...
Identifier
54330, 2022-151BZ
Orbit
SSO
Country
Flag of CNCN / PRC
Related business
Manufacturer
SAST
Mission
Spacecraft
Bus & Motor
Unknown
Mass
Unknown
Launch date (UTC)
2022-11-11 (4 years ago)
Launch vehicle
Unknown
Launch site
Taiyaun Space Center, China (TSC)
Object type
Payload
Rocket body
Debris
Shape & HBR
Unknown shape, 0.1 m
Radar Cross Section
Small (<0.1 m²)

Expand to show TLE details & history
Last TLE update: 2 days ago

TLE from 2 days ago
0 CZ-6A DEB
1 54330U 22151BZ  26171.05240940  .00001421  00000-0  57077-3 0  9994
2 54330  98.7567 195.0837 0050863 318.9845  40.7516 14.29061681186637
Epoch: 2026-06-20T01:15Z
TLE epoch observation values (Epoch: 2026-06-20T01:15:28.172Z)
Latitude
Longitude
-92.05625°
Altitude
770.23 km
Speed
7.483 km/s
True Right ascension
13h 00m 20s
True Declination
0° 00' 00"
Sunlit
Object was in daylight at epoch
Visualization orbit readout
Latitude
Unknown
Longitude
Unknown
Altitude
Unknown
Speed
Unknown
Apparent Right ascension
Unknown
Apparent Declination
Unknown
Sunlit
N/A
Visualization observer readout
Local Sidereal Time
21:54:17
Azimuth
Unknown
Elevation
Unknown
Doppler factor
Unknown
Orbital elements
Apogee altitude
828.487 km
Perigee altitude
755.548 km
Semi-major axis
7,170.155 km
Eccentricity
0.00509
Inclination
98.7567°
RAAN
195.0837°
Arg. of periapsis
318.9845°
True anomaly
41.13391°
Mean anomaly
40.7516°
Eccentric anomaly
40.94257°
Mean motion
3.57479 °/min
Orbital period
100.71 mins
BSTAR
0.00057077
Loading maneuver chart data...
Computing Atmospheric mass density...
Loading historical data...
Loading historical data...
Loading historical data...
Loading historical data...
Loading historical data...
Loading historical data...
Loading historical data...

Documentation

Showing up to 5 results
|